Hoffman, NC

10:22 PM EST on December 04, 2016 (GMT -0500)
Mackall Army Air Field

Weather History for KHFF - September, 2013

Change the Weather History Date:

Friday, September 13, 2013

  Actual Average Record
Temperature  
Mean Temperature 78 °F -  
Max Temperature 89 °F 80 °F 89 °F (2000)
Min Temperature 69 °F 63 °F 53 °F (2012)
Cooling Degree Days 14    
Growing Degree Days 28 (Base 50)    
Moisture  
Dew Point 60 °F    
Average Humidity 57    
Maximum Humidity 93    
Minimum Humidity 31    
Precipitation  
Precipitation 0.00 in - - ()
Sea Level Pressure  
Sea Level Pressure 29.83 in    
Wind  
Wind Speed 7 mph (NW)    
Max Wind Speed 14 mph    
Max Gust Speed 18 mph    
Visibility 11 miles    
Events      
Averages and records for this station are not official NWS values.
T = Trace of Precipitation, MM = Missing Value Source: NWS Daily Summary

Daily Weather History Graph

Daily Weather History Graph

Search for Another Location

Airport or City:

Trip Planner

Search our weather history database for the weather conditions in past years. The results will help you decide how hot, cold, wet, or windy it might be!

Date:

Astronomy

Sep. 13, 2013 Rise Set
Actual Time 6:59 AM EDT 7:27 PM EDT
Civil Twilight 6:34 AM EDT 7:52 PM EDT
Nautical Twilight 6:04 AM EDT 8:22 PM EDT
Astronomical Twilight 5:33 AM EDT 8:52 PM EDT
Moon 3:06 PM EDT (9/13) 12:37 AM EDT (9/13)
Length of Visible Light 13h 18m
Length of Day
12h 27m
First Quarter, 61% of the Moon is Illuminated
Sep 13
First Quarter
Sep 19
Full
Sep 26
Last Quarter
Oct 4
New
Oct 11
First Quarter

Hourly Weather History & Observations

Time (EDT) Temp. Heat Index Dew Point Humidity Pressure Visibility Wind Dir Wind Speed Gust Speed Precip Events Conditions
12:56 AM 75.9 °F - 67.8 °F 76% 29.84 in 12.0 mi SW 6.9 mph - N/A   Mostly Cloudy
1:56 AM 74.3 °F - 67.5 °F 79% 29.82 in 12.0 mi SW 4.6 mph - N/A   Mostly Cloudy
2:56 AM 73.4 °F - 66.7 °F 80% 29.81 in 12.0 mi WNW 3.5 mph - N/A   Clear
3:56 AM 70.3 °F - 66.9 °F 89% 29.80 in 12.0 mi WSW 2.3 mph - N/A   Clear
4:56 AM 69.4 °F - 66.2 °F 89% 29.80 in 11.0 mi Variable 1.2 mph - N/A   Clear
5:56 AM 69.3 °F - 66.9 °F 92% 29.81 in 9.0 mi West 4.6 mph - N/A   Clear
6:56 AM 69.8 °F - 66.9 °F 91% 29.82 in 8.0 mi NW 4.6 mph - N/A   Mostly Cloudy
7:56 AM 69.4 °F - 67.3 °F 93% 29.84 in 5.0 mi NW 4.6 mph - N/A   Clear
8:56 AM 75.4 °F - 66.2 °F 73% 29.85 in 12.0 mi North 6.9 mph - N/A   Clear
9:56 AM 80.8 °F 81.4 °F 60.3 °F 49% 29.85 in 12.0 mi NNW 10.4 mph - N/A   Clear
10:56 AM 82.4 °F 82.2 °F 57.9 °F 43% 29.85 in 12.0 mi North 12.7 mph - N/A   Partly Cloudy
11:56 AM 84.9 °F 84.2 °F 58.1 °F 40% 29.84 in 12.0 mi North 11.5 mph 16.1 mph N/A   Clear
12:56 PM 85.8 °F 84.5 °F 55.8 °F 36% 29.83 in 12.0 mi NNW 11.5 mph 18.4 mph N/A   Partly Cloudy
1:56 PM 86.4 °F 84.9 °F 55.6 °F 35% 29.81 in 12.0 mi Variable 6.9 mph 13.8 mph N/A   Partly Cloudy
2:56 PM 87.4 °F 85.5 °F 54.3 °F 32% 29.79 in 12.0 mi WNW 11.5 mph 18.4 mph N/A   Scattered Clouds
3:56 PM 88.9 °F 86.9 °F 54.3 °F 31% 29.79 in 12.0 mi WNW 13.8 mph 18.4 mph N/A   Scattered Clouds
4:56 PM 87.6 °F 85.5 °F 53.4 °F 31% 29.79 in 12.0 mi West 12.7 mph 17.3 mph N/A   Clear
5:56 PM 85.3 °F 83.8 °F 54.5 °F 35% 29.79 in 12.0 mi WNW 6.9 mph 15.0 mph N/A   Partly Cloudy
6:56 PM 81.9 °F 81.6 °F 56.5 °F 42% 29.80 in 12.0 mi North 4.6 mph - N/A   Scattered Clouds
7:56 PM 77.9 °F - 57.0 °F 48% 29.82 in 12.0 mi North 6.9 mph - N/A   Mostly Cloudy
8:56 PM 75.6 °F - 57.9 °F 54% 29.86 in 7.0 mi NNE 6.9 mph - N/A   Haze
9:56 PM 75.0 °F - 53.6 °F 47% 29.88 in 12.0 mi NNE 9.2 mph - N/A   Mostly Cloudy
10:56 PM 72.5 °F - 50.7 °F 46% 29.90 in 12.0 mi North 9.2 mph - N/A   Scattered Clouds
11:56 PM 71.6 °F - 49.5 °F 45% 29.90 in 12.0 mi North 11.5 mph - N/A   Mostly Cloudy